Wind_Speed
10 10 8 6 4 7 9 10 12 14 15 13 10 9 10 9 9 9 10 12 12 12 11 10 9 9 9 9 9 10 10 11 11 10 10 11 12 13 14 15 16 16 16 16 15 14 14 14 13
10 9 7 6 4 6 6 6 8 9 10 10 9 9 8 8 8 8 8 9 10 9 7 6 7 7 6 7 8 8 9 9 9 9 9 9 10 11 12 13 14 15 15 15 15 14 13 13 12
11 9 8 6 4 2 2 3 4 4 5 5 7 7 7 6 6 6 5 6 7 6 5 4 4 5 5 6 7 7 8 9 9 9 9 9 10 10 11 12 13 14 14 15 15 14 13 12 11
13 11 9 7 5 3 2 3 3 3 2 2 3 4 4 3 3 2 3 3 4 3 1 2 3 4 4 5 6 7 7 8 9 9 9 9 9 10 10 11 12 13 14 14 14 14 13 12 11
14 13 11 9 8 6 5 5 6 6 5 4 3 3 2 2 1 1 1 1 1 0 2 2 3 3 4 4 5 6 7 8 9 9 9 8 9 9 9 10 11 12 12 13 13 13 12 11 11
14 14 13 12 11 9 8 7 7 7 6 6 6 6 6 5 4 4 4 3 3 3 4 3 3 3 4 4 5 5 6 7 8 8 8 8 7 8 8 8 9 10 11 11 12 12 12 11 10
12 13 14 13 11 9 9 8 8 8 8 7 8 9 8 8 8 8 7 7 7 7 6 6 5 5 5 5 5 5 5 6 7 7 7 6 6 6 6 7 7 9 10 11 12 12 12 11 10
12 13 15 14 11 10 8 7 7 8 8 8 8 9 10 11 11 11 11 11 10 9 9 8 8 7 7 7 6 6 6 7 7 7 7 6 5 5 5 5 7 8 10 11 12 13 14 14 13
13 14 16 15 13 11 10 8 7 8 9 8 8 9 10 11 11 12 12 12 12 12 11 10 9 9 9 9 8 8 8 9 9 8 8 7 6 6 6 6 7 8 10 11 13 14 15 15 15
16 16 18 18 16 15 13 11 9 9 10 8 7 8 9 10 10 12 13 13 13 13 12 12 11 11 11 11 11 12 12 12 11 10 9 9 8 8 8 7 8 8 9 10 12 13 15 16 16
20 20 22 22 21 19 17 14 12 11 11 9 8 7 8 9 10 11 12 13 14 14 14 13 13 13 13 14 14 14 14 14 13 12 11 10 10 10 10 10 10 9 10 11 12 13 14 16 16
25 24 26 27 26 23 21 19 16 14 14 12 11 10 10 11 11 12 13 14 15 15 15 15 15 16 16 17 17 16 16 16 15 14 14 13 13 12 12 12 12 12 12 12 13 14 15 16 16
30 29 30 30 29 27 26 24 22 20 19 17 15 14 14 15 15 16 16 17 17 17 17 18 18 18 19 19 19 19 18 19 18 16 15 15 15 15 14 14 15 15 14 14 14 15 16 16 17
33 32 32 32 32 31 30 29 27 25 24 23 22 20 19 19 19 20 20 21 21 21 20 21 21 21 22 22 22 22 21 21 20 19 18 18 18 17 16 16 15 15 15 15 15 16 17 18 18
35 34 34 34 35 36 36 34 32 30 29 29 27 26 25 23 22 23 24 24 25 25 25 25 25 25 26 26 26 26 26 25 25 24 22 22 20 19 18 17 17 17 17 17 18 18 19 20 20
39 38 37 37 38 40 41 40 35 35 34 33 32 31 30 28 27 26 26 27 28 28 28 28 28 29 29 31 30 30 30 30 29 28 27 25 23 22 20 19 19 19 19 20 21 21 22 23 23
38 39 40 40 42 43 44 45 40 40 40 38 37 35 34 33 32 30 30 30 30 31 30 31 31 31 32 33 34 33 33 33 32 32 30 29 26 24 23 22 22 21 22 23 24 24 25 25 26
35 37 38 39 41 44 45 46 44 42 43 42 41 40 39 37 36 35 35 34 34 33 33 32 32 33 34 35 36 36 36 36 36 35 34 32 30 28 26 25 24 24 25 26 27 27 28 28 29
28 30 32 34 38 41 42 43 42 41 41 41 41 40 39 39 38 39 38 37 36 36 35 35 35 36 37 38 38 38 39 39 39 38 37 36 34 31 29 28 27 26 27 29 30 30 31 32 33
24 25 26 28 31 34 35 35 36 36 37 37 38 38 38 37 38 38 38 36 37 37 36 35 37 38 38 38 39 41 42 42 42 41 40 39 36 33 30 29 28 28 29 30 31 32 33 34 37
26 26 26 27 27 29 30 30 32 33 33 33 34 34 35 35 36 38 38 38 38 37 37 38 39 39 40 41 42 43 43 43 43 42 41 40 38 35 31 30 29 29 30 30 32 34 35 36 38
27 28 29 28 28 29 30 32 31 32 33 33 33 34 36 37 38 39 40 39 39 39 39 41 41 42 41 41 42 43 43 43 42 41 38 38 35 33 30 28 27 28 29 31 33 35 37 38 39
28 29 30 30 30 30 31 33 34 33 35 36 37 37 39 40 42 42 43 44 44 44 45 45 45 44 44 43 43 42 42 41 39 36 34 33 31 29 28 27 28 29 31 32 34 37 38 39 40
26 27 28 28 29 30 29 32 34 33 36 39 41 42 43 45 46 47 48 49 50 51 51 50 49 48 47 46 44 43 41 39 36 34 32 31 30 29 29 29 31 32 34 35 37 38 39 40 40
21 22 23 24 24 24 25 28 29 29 32 37 41 45 48 50 52 53 54 55 56 56 56 56 55 53 51 50 49 46 42 39 36 33 31 30 30 30 31 33 34 35 37 38 38 39 39 38 38
18 19 21 23 21 20 20 22 21 23 26 30 35 40 45 49 53 56 58 59 60 60 60 58 57 55 54 52 49 46 43 40 38 36 34 33 33 34 35 37 38 38 39 39 39 38 37 35 35
17 18 19 21 21 20 18 18 19 22 26 28 31 34 38 43 47 51 54 57 58 59 58 57 56 55 54 52 49 45 43 41 41 38 37 36 36 37 37 38 39 39 39 38 37 35 34 32 31
17 17 18 20 22 22 19 18 20 22 25 27 30 33 36 39 43 46 50 54 56 57 57 56 55 54 52 51 48 45 42 42 43 40 39 39 39 39 39 39 39 38 37 36 34 32 31 30 29
18 18 19 21 22 25 24 20 23 25 26 28 31 34 37 39 41 44 47 49 50 51 51 51 50 48 47 45 44 42 40 40 41 40 39 39 39 39 38 37 36 35 34 33 32 31 30 29 29
20 20 21 22 23 25 27 24 26 27 29 31 33 35 37 39 40 42 43 44 44 43 43 43 43 42 41 41 40 39 37 36 37 38 37 38 38 36 35 34 34 33 32 32 31 30 30 29 29
Wind_Direction
167 162 146 131 116 90 82 85 93 99 102 101 97 93 94 100 104 112 117 116 114 114 113 110 103 95 88 82 76 70 66 61 56 51 44 37 31 28 26 26 25 25 28 30 33 36 39 41 42
186 183 175 160 137 103 87 81 84 88 97 104 106 102 100 105 110 119 121 120 119 119 119 112 98 88 77 69 62 58 55 52 47 43 39 31 25 21 18 16 15 15 17 20 23 26 30 33 36
201 204 202 193 181 138 111 104 95 96 95 103 106 103 101 105 113 119 121 121 118 121 125 108 85 74 62 53 49 48 46 43 39 36 32 26 19 14 10 7 5 5 7 9 12 17 20 23 26
212 218 220 216 216 226 236 214 185 167 164 150 127 114 111 111 115 117 123 112 104 113 113 61 56 53 46 39 34 33 30 27 24 23 21 18 13 10 6 3 1 359 359 0 3 6 11 15 17
216 224 231 232 232 233 247 248 222 209 208 213 211 193 198 202 203 219 226 101 83 317 316 354 19 20 18 17 17 17 18 20 19 19 17 15 11 8 6 5 3 0 359 359 358 358 1 6 10
218 227 235 238 237 237 246 251 242 235 226 232 236 231 229 234 236 243 252 258 262 273 291 310 328 337 343 351 360 4 10 15 15 14 14 14 12 12 11 12 10 6 4 1 358 356 354 356 358
221 230 238 241 241 240 247 258 267 262 245 245 247 243 240 239 240 242 248 255 262 269 278 287 297 304 310 319 330 340 348 355 359 359 360 1 5 9 11 10 8 4 1 358 355 353 347 343 342
223 232 242 246 245 246 250 262 285 285 270 259 253 249 244 243 245 246 250 256 262 267 273 279 284 291 297 305 310 318 325 329 334 337 339 341 341 343 346 350 352 353 354 355 353 350 344 337 330
229 237 247 253 254 256 258 267 289 301 292 274 265 261 255 250 249 252 255 259 263 266 270 276 280 286 291 296 298 302 311 315 317 314 315 316 316 314 318 325 335 342 347 350 348 346 342 337 329
234 244 251 257 260 262 265 271 283 300 301 288 277 273 266 259 254 255 258 261 263 265 268 272 277 281 285 289 290 295 302 305 306 304 301 298 293 294 300 307 315 324 333 339 343 342 341 338 331
232 243 252 257 259 262 268 273 281 293 303 298 288 279 274 269 264 262 262 263 265 265 267 268 272 278 281 284 287 291 295 299 300 298 296 290 285 285 289 293 299 306 317 327 336 339 338 338 336
231 240 247 252 257 263 270 275 277 283 291 293 292 284 275 271 269 267 266 265 266 267 268 270 272 275 278 281 284 286 288 291 294 293 290 287 284 284 284 286 290 295 307 320 328 334 335 336 336
232 238 245 253 260 265 269 272 274 277 279 280 280 279 277 273 271 270 270 269 269 270 271 272 273 276 277 280 282 282 283 284 285 287 287 285 284 284 284 283 286 291 298 308 316 320 326 329 330
235 240 247 253 259 263 265 268 271 272 273 274 274 274 274 274 272 271 270 271 271 272 273 275 276 278 278 279 280 280 281 281 281 281 282 282 283 284 286 286 288 292 295 301 306 310 315 318 322
237 239 244 247 252 257 260 261 265 267 269 270 271 272 273 274 273 271 270 271 271 271 271 273 275 277 278 277 276 276 278 279 280 280 281 281 281 282 284 286 287 290 293 297 299 302 305 309 313
238 238 238 241 245 250 255 257 259 262 264 266 267 268 270 271 271 269 268 268 269 269 269 270 272 275 277 276 274 274 275 277 278 280 281 281 281 282 284 285 286 287 289 293 294 295 297 300 304
236 237 237 238 242 246 251 256 256 258 261 263 264 265 266 266 266 265 264 263 264 265 268 270 272 273 275 275 274 274 273 274 276 277 278 279 280 281 282 283 284 285 286 289 289 289 292 294 296
236 237 238 239 242 245 249 253 256 257 260 262 263 264 265 264 263 262 262 262 263 264 265 268 271 272 271 271 270 270 269 271 272 273 274 275 276 278 280 281 282 282 283 284 285 286 288 290 292
245 244 243 243 245 248 250 253 256 258 259 260 261 261 261 261 260 260 260 260 261 263 264 266 267 270 271 270 269 266 266 266 266 267 269 270 272 275 277 280 279 280 280 281 281 283 286 289 290
256 255 253 251 252 254 254 256 258 259 259 260 260 260 258 258 258 259 260 260 260 261 263 266 268 270 272 271 270 268 266 265 263 266 267 266 268 271 273 275 276 278 279 280 281 283 285 287 289
260 260 260 258 257 259 261 260 261 263 262 260 259 259 259 260 260 262 263 261 262 263 263 266 268 271 273 272 271 272 269 263 263 263 261 262 265 267 268 270 273 275 277 279 281 283 286 287 289
263 264 265 266 264 263 264 263 260 262 264 263 262 261 261 261 262 263 264 266 267 265 267 270 273 274 274 272 270 268 267 264 262 263 263 263 265 267 269 272 273 275 277 280 282 285 287 288 289
265 267 268 270 269 267 264 264 262 259 260 262 263 263 263 263 264 265 266 268 270 271 273 275 277 276 275 274 272 269 265 262 262 263 264 266 270 271 274 276 277 278 280 282 284 287 289 290 290
267 269 270 272 272 271 269 267 265 262 259 259 261 264 265 266 267 267 267 269 271 273 274 276 277 278 276 276 277 275 270 266 265 264 264 268 269 272 275 276 277 280 282 285 287 289 290 291 291
270 272 275 275 275 278 277 274 274 272 266 263 262 263 266 267 268 269 269 270 271 271 273 274 275 275 274 276 279 280 274 269 266 264 264 268 271 274 275 276 278 280 283 286 288 290 290 291 291
278 280 282 284 284 283 282 284 287 283 276 272 270 270 270 270 271 271 271 272 272 272 273 273 273 273 274 274 274 275 271 265 264 264 264 266 269 271 274 275 276 279 282 285 288 289 290 290 290
286 286 288 290 291 292 291 292 291 287 284 283 282 281 279 277 276 276 275 274 273 272 272 272 271 271 271 272 271 272 269 265 263 262 263 264 267 270 273 274 275 277 280 283 285 287 287 287 287
293 295 294 293 295 297 298 301 299 294 295 297 298 296 294 290 286 283 281 277 275 273 272 271 271 270 270 268 267 268 267 265 263 260 261 263 265 268 271 273 274 276 278 281 282 283 283 283 283
294 296 295 295 297 299 301 305 302 302 305 307 307 307 305 302 298 293 288 284 280 276 273 271 269 267 266 266 264 263 264 263 261 259 260 262 266 268 270 271 272 274 276 277 278 279 279 280 280
292 292 293 294 296 298 301 306 303 306 309 311 312 313 313 309 305 299 293 289 285 279 273 269 266 264 262 262 259 259 260 260 258 257 258 260 263 265 267 270 272 273 274 275 276 276 277 277 277
Height
5909 5910 5911 5913 5914 5914 5913 5913 5912 5912 5913 5914 5915 5915 5916 5917 5918 5920 5919 5917 5918 5918 5918 5919 5918 5918 5917 5917 5916 5916 5916 5916 5916 5916 5916 5915 5915 5914 5913 5912 5911 5911 5910 5909 5908 5907 5906 5905 5904
5910 5911 5913 5914 5915 5914 5915 5914 5913 5913 5914 5915 5916 5917 5917 5918 5919 5920 5919 5919 5919 5920 5920 5920 5919 5919 5919 5918 5918 5917 5917 5917 5917 5917 5917 5916 5916 5915 5914 5913 5912 5911 5910 5909 5908 5907 5906 5905 5904
5911 5912 5914 5915 5915 5916 5916 5916 5915 5915 5915 5916 5917 5918 5919 5919 5920 5921 5921 5921 5920 5921 5921 5921 5920 5920 5920 5919 5919 5918 5918 5918 5918 5917 5917 5917 5916 5916 5915 5914 5913 5912 5911 5910 5908 5907 5906 5905 5904
5911 5913 5915 5916 5916 5916 5917 5917 5916 5916 5916 5916 5917 5918 5919 5920 5921 5922 5922 5922 5922 5922 5923 5922 5921 5921 5920 5920 5920 5919 5919 5918 5918 5918 5917 5917 5916 5916 5915 5914 5913 5912 5910 5909 5908 5907 5906 5905 5904
5911 5912 5914 5915 5915 5916 5917 5917 5917 5917 5917 5917 5917 5918 5919 5920 5921 5922 5922 5922 5922 5923 5924 5923 5922 5922 5921 5921 5920 5920 5919 5919 5918 5918 5917 5917 5916 5915 5914 5913 5912 5911 5910 5909 5907 5906 5905 5904 5904
5910 5911 5913 5913 5914 5915 5916 5917 5917 5917 5917 5917 5917 5918 5919 5920 5920 5921 5922 5923 5923 5923 5923 5923 5922 5922 5921 5921 5920 5920 5919 5919 5918 5918 5917 5916 5915 5915 5914 5913 5912 5911 5909 5908 5907 5906 5905 5904 5903
5910 5910 5910 5911 5913 5915 5916 5916 5916 5916 5916 5917 5917 5918 5918 5919 5920 5921 5922 5922 5923 5923 5923 5922 5922 5922 5921 5921 5920 5919 5919 5919 5918 5918 5917 5916 5915 5914 5914 5913 5912 5910 5909 5907 5906 5905 5904 5902 5901
5909 5910 5909 5910 5911 5913 5915 5916 5916 5916 5916 5916 5916 5917 5918 5919 5919 5920 5921 5921 5922 5922 5922 5922 5921 5921 5921 5920 5920 5919 5919 5918 5918 5917 5917 5916 5915 5914 5913 5912 5911 5910 5908 5907 5905 5904 5902 5901 5900
5908 5909 5908 5908 5910 5912 5913 5915 5916 5916 5916 5915 5915 5916 5917 5917 5918 5918 5919 5920 5920 5920 5920 5920 5920 5920 5920 5919 5919 5918 5918 5917 5917 5916 5916 5915 5914 5913 5912 5911 5910 5908 5907 5905 5904 5902 5900 5899 5897
5907 5907 5906 5907 5908 5909 5911 5913 5915 5916 5915 5915 5914 5914 5915 5915 5916 5917 5917 5917 5918 5918 5918 5918 5918 5918 5918 5918 5918 5917 5917 5916 5916 5915 5915 5914 5913 5912 5911 5910 5909 5907 5906 5904 5902 5901 5899 5897 5895
5904 5905 5904 5904 5905 5907 5909 5911 5913 5914 5915 5914 5914 5913 5913 5913 5914 5914 5915 5915 5915 5915 5915 5915 5916 5916 5916 5916 5915 5915 5915 5914 5914 5913 5913 5912 5911 5910 5909 5908 5907 5905 5904 5902 5900 5899 5897 5895 5893
5902 5902 5901 5901 5902 5905 5907 5909 5911 5912 5913 5913 5913 5912 5912 5912 5912 5912 5913 5913 5913 5913 5913 5913 5913 5913 5913 5913 5913 5912 5912 5912 5911 5910 5910 5909 5909 5908 5907 5906 5905 5903 5902 5900 5898 5896 5895 5893 5891
5898 5898 5897 5898 5900 5903 5904 5905 5907 5909 5909 5910 5910 5910 5910 5910 5910 5910 5910 5910 5910 5910 5910 5910 5910 5910 5910 5909 5909 5909 5909 5908 5908 5907 5906 5905 5905 5904 5903 5902 5901 5900 5899 5897 5895 5894 5892 5891 5889
5893 5895 5895 5896 5896 5898 5899 5900 5902 5904 5904 5905 5906 5907 5907 5907 5906 5906 5906 5907 5907 5907 5907 5907 5907 5907 5906 5906 5905 5905 5904 5904 5904 5903 5902 5901 5900 5900 5899 5898 5897 5896 5895 5893 5892 5891 5889 5888 5886
5888 5891 5892 5892 5891 5891 5893 5895 5897 5898 5899 5900 5901 5902 5903 5903 5903 5903 5902 5902 5902 5903 5903 5903 5902 5902 5902 5901 5900 5900 5899 5899 5899 5898 5898 5897 5896 5895 5894 5893 5892 5891 5890 5889 5888 5887 5885 5884 5882
5881 5884 5886 5886 5885 5885 5887 5889 5892 5891 5892 5894 5895 5896 5898 5898 5898 5898 5898 5897 5897 5897 5897 5897 5897 5897 5896 5895 5894 5894 5893 5893 5892 5892 5891 5891 5890 5890 5889 5888 5887 5886 5885 5884 5883 5882 5880 5879 5877
5873 5875 5877 5879 5879 5880 5880 5881 5885 5885 5885 5887 5889 5890 5891 5892 5892 5892 5891 5891 5890 5890 5890 5890 5890 5890 5889 5888 5888 5887 5886 5886 5885 5884 5884 5883 5883 5883 5882 5882 5882 5881 5879 5878 5877 5876 5875 5873 5871
5865 5867 5870 5872 5872 5873 5874 5875 5877 5878 5879 5880 5881 5882 5883 5884 5885 5884 5883 5883 5883 5883 5883 5882 5882 5882 5881 5880 5880 5879 5878 5877 5877 5876 5876 5876 5875 5875 5875 5875 5874 5874 5873 5872 5871 5869 5868 5866 5864
5860 5862 5864 5866 5866 5867 5868 5869 5869 5871 5871 5872 5873 5874 5875 5875 5875 5874 5874 5874 5875 5875 5875 5874 5874 5873 5872 5871 5871 5870 5869 5868 5868 5867 5867 5867 5867 5867 5867 5867 5866 5866 5865 5864 5863 5861 5860 5858 5856
5856 5857 5859 5860 5860 5861 5862 5862 5862 5863 5864 5864 5864 5865 5865 5866 5866 5864 5864 5864 5865 5864 5865 5865 5864 5862 5862 5862 5861 5860 5859 5858 5858 5857 5857 5856 5857 5857 5857 5857 5857 5857 5857 5856 5855 5853 5852 5850 5848
5851 5852 5853 5854 5855 5855 5855 5856 5856 5855 5856 5856 5856 5856 5857 5857 5857 5857 5855 5853 5854 5854 5855 5854 5853 5852 5852 5852 5851 5850 5848 5848 5848 5847 5846 5846 5847 5847 5847 5847 5848 5848 5848 5847 5846 5845 5843 5842 5839
5846 5846 5846 5847 5848 5849 5849 5848 5850 5848 5848 5848 5848 5849 5849 5849 5849 5849 5847 5844 5844 5844 5843 5843 5843 5843 5842 5841 5840 5840 5839 5837 5837 5836 5835 5836 5837 5837 5837 5838 5838 5839 5839 5839 5838 5836 5834 5832 5831
5840 5840 5840 5840 5841 5841 5841 5840 5842 5842 5841 5840 5840 5840 5840 5840 5840 5840 5839 5837 5836 5836 5835 5835 5834 5833 5832 5831 5830 5829 5828 5826 5826 5826 5826 5827 5828 5828 5829 5830 5830 5830 5830 5830 5828 5827 5825 5823 5821
5835 5835 5835 5834 5834 5834 5834 5833 5833 5833 5833 5832 5831 5830 5830 5830 5829 5829 5829 5828 5827 5826 5825 5824 5823 5822 5821 5820 5819 5819 5817 5816 5816 5817 5818 5818 5820 5821 5822 5822 5822 5822 5821 5820 5819 5817 5815 5813 5811
5831 5831 5830 5829 5829 5828 5827 5826 5826 5826 5825 5824 5823 5822 5820 5819 5818 5817 5816 5816 5815 5814 5814 5813 5812 5812 5811 5810 5809 5808 5807 5808 5808 5809 5810 5810 5811 5812 5813 5814 5813 5813 5812 5811 5810 5808 5806 5804 5801
5828 5827 5826 5825 5824 5823 5822 5820 5821 5819 5817 5816 5814 5813 5811 5809 5807 5805 5804 5802 5801 5801 5800 5800 5799 5799 5799 5799 5799 5798 5797 5798 5799 5800 5801 5802 5803 5804 5805 5805 5804 5804 5803 5802 5800 5799 5796 5794 5792
5824 5823 5822 5821 5819 5818 5818 5817 5816 5813 5810 5808 5807 5804 5802 5799 5796 5793 5791 5788 5786 5785 5785 5785 5785 5785 5786 5786 5787 5787 5787 5788 5789 5790 5791 5792 5793 5795 5795 5795 5795 5794 5793 5792 5791 5789 5788 5786 5784
5821 5820 5818 5816 5814 5812 5813 5812 5810 5806 5804 5802 5799 5795 5792 5788 5784 5780 5777 5773 5771 5770 5770 5770 5771 5771 5771 5772 5773 5774 5775 5776 5777 5779 5780 5782 5784 5785 5785 5785 5785 5784 5784 5783 5782 5781 5779 5778 5776
5817 5815 5813 5811 5809 5806 5805 5808 5803 5799 5796 5794 5790 5786 5781 5776 5771 5766 5762 5758 5755 5754 5754 5755 5755 5757 5758 5758 5759 5761 5762 5764 5766 5767 5770 5772 5773 5774 5775 5775 5775 5775 5774 5774 5773 5772 5771 5770 5769
5811 5810 5808 5807 5804 5800 5797 5801 5795 5792 5788 5785 5781 5776 5771 5765 5759 5753 5748 5744 5741 5740 5740 5741 5742 5744 5745 5746 5748 5750 5751 5753 5755 5757 5759 5761 5763 5764 5765 5765 5765 5765 5765 5765 5764 5764 5763 5762 5760